Погода в Огузе

Азербайджан     41°03′47″N   47°27′31″E
темп.,
°C
ветер,
м/с
пор.,
м/с
влажн.,
%
обл.,
%
осадки,
мм/ч
давл.,
гПа
погр.,
м
11 апреля, вс
вс1101:00+15св1155100 0.0 101519
04:00+13ю116579 0.1 101513
07:00+12юз0067100 0.0 101611
10:00+17ююв2349100 0.0 1016624
13:00+19юв2443100 0.0 1015522
16:00+20юв4745100 0.0 1013945
19:00+15в3365100 0.3 101455
22:00+13всв227095 0.3 101616
12 апреля, пн
пн1201:00+13св116629 0.0 101411
04:00+12ссв116657 0.0 101412
07:00+13с1166100 0.0 101512
10:00+18ю22522 0.0 1015566
13:00+22ююв45410 0.0 10141261
16:00+23юв55410 0.1 10131266
19:00+18юв47590 0.2 1014166
22:00+12юв23775 0.3 101745
13 апреля, вт
вт1301:00+11в33737 0.0 101833
04:00+11всв2275100 0.4 101920
07:00+11вюв1181100 0.8 102025
10:00+14ю226996 1.7 1020463
13:00+16ююв346344 0.4 1018660
16:00+20ююв464778 0.5 10161312
19:00+16вюв335160 0.0 101644
22:00+13св2152100 0.1 101812
14 апреля, ср
ср1401:00+12ссв1152100 0.0 101613
04:00+10с22575 0.1 101515
07:00+10сз2471100 0.1 101683
10:00+14зсз4566100 0.3 1016467
13:00+18ю3342100 0.3 10142175
16:00+11зсз1387100 7.8 1015195
19:00+11всв1180100 1.9 101436
22:00+10ссв117592 1.9 101511
15 апреля, чт
чт1501:00+9св22700 0.0 101614
04:00+8ссв22610 0.0 101715
07:00+9ссв11570 0.0 101714
10:00+14зюз24470 0.0 1017569
13:00+21з57290 0.0 10151691
16:00+21з55280 0.0 10131566
19:00+17з22450 0.0 101414
22:00+13св324859 0.0 101617